TimeEDT,TemperatureF,Dew PointF,Humidity,Sea Level PressureIn,VisibilityMPH,Wind Direction,Wind SpeedMPH,Gust SpeedMPH,PrecipitationIn,Events,Conditions,WindDirDegrees,DateUTC
12:53 AM,59.0,57.0,93,30.01,10.0,North,3.5,-,N/A,,Clear,10,2013-09-30 04:53:00
1:53 AM,60.1,57.9,93,30.01,10.0,NNE,5.8,-,N/A,,Clear,30,2013-09-30 05:53:00
2:53 AM,60.1,57.9,93,30.00,10.0,NE,5.8,-,N/A,,Scattered Clouds,40,2013-09-30 06:53:00
3:53 AM,61.0,57.9,90,30.01,10.0,NNE,6.9,-,N/A,,Partly Cloudy,30,2013-09-30 07:53:00
4:53 AM,61.0,57.9,90,30.02,10.0,North,5.8,-,N/A,,Mostly Cloudy,360,2013-09-30 08:53:00
5:53 AM,60.1,57.0,90,30.03,10.0,NNE,8.1,-,N/A,,Overcast,30,2013-09-30 09:53:00
6:53 AM,57.9,55.0,90,30.04,10.0,Calm,Calm,-,N/A,,Partly Cloudy,0,2013-09-30 10:53:00
7:53 AM,61.0,57.0,87,30.06,10.0,North,3.5,-,N/A,,Overcast,360,2013-09-30 11:53:00
8:53 AM,63.0,55.9,78,30.07,10.0,North,5.8,-,N/A,,Clear,360,2013-09-30 12:53:00
9:53 AM,70.0,53.1,55,30.06,10.0,NNE,10.4,-,N/A,,Clear,30,2013-09-30 13:53:00
10:53 AM,73.9,51.1,45,30.06,10.0,North,10.4,-,N/A,,Clear,10,2013-09-30 14:53:00
11:53 AM,75.9,51.1,42,30.04,10.0,North,9.2,-,N/A,,Clear,350,2013-09-30 15:53:00
12:53 PM,77.0,51.1,40,30.03,10.0,North,8.1,-,N/A,,Clear,360,2013-09-30 16:53:00
1:53 PM,79.0,50.0,36,30.02,10.0,NE,8.1,-,N/A,,Clear,40,2013-09-30 17:53:00
2:53 PM,79.0,48.9,35,30.00,10.0,NNE,6.9,-,N/A,,Clear,30,2013-09-30 18:53:00
3:53 PM,79.0,50.0,36,29.99,10.0,NNW,5.8,-,N/A,,Clear,330,2013-09-30 19:53:00
4:53 PM,78.1,48.9,36,29.99,10.0,NW,4.6,-,N/A,,Clear,310,2013-09-30 20:53:00
5:53 PM,75.9,50.0,40,30.01,10.0,North,3.5,-,N/A,,Clear,360,2013-09-30 21:53:00
6:53 PM,69.1,55.0,61,30.02,10.0,East,4.6,-,N/A,,Clear,100,2013-09-30 22:53:00
7:53 PM,64.9,55.9,73,30.04,10.0,Calm,Calm,-,N/A,,Clear,0,2013-09-30 23:53:00
8:53 PM,63.0,55.9,78,30.05,10.0,Calm,Calm,-,N/A,,Clear,0,2013-10-01 00:53:00
9:53 PM,60.1,57.9,93,30.06,10.0,Calm,Calm,-,N/A,,Clear,0,2013-10-01 01:53:00
10:53 PM,60.1,55.9,86,30.07,10.0,Calm,Calm,-,N/A,,Clear,0,2013-10-01 02:53:00
11:53 PM,57.9,55.0,90,30.06,10.0,Calm,Calm,-,N/A,,Clear,0,2013-10-01 03:53:00